STARLINK-3837, 52358

Orbit data source: Space-Track

STARLINK-3837, 52358 is a payload satellite owned by SpaceX/Seattle (US) in LEO that was launched on Fri, 29 Apr 2022 UTC via an FALCON 9 launch vehicle from the Air Force Eastern Test Range (AFETR). Payload-class satellites include a variety of spacecraft equipped with specific instruments for various scientific and technological missions. These include communications satellites like Starlink; space stations such as the ISS; scientific satellites like the Hubble; Earth observation satellites from companies like Planet Labs, Umbra, and HawkEye 360; GPS; miniature CubeSats for education and research; and military/defense satellites.

Loading next visibility...
Identifier
52358, 2022-045AD
Orbit
LEO
Country
Flag of USUS
Related business
Manufacturer
SpaceX/Seattle
Mission
Operational Commercial Communications
Bus & Motor
STARLINK, Unknown motor
Mass
297 kg wet, ~275 kg dry
Launch date (UTC)
2022-04-29 (4 years ago)
Launch vehicle
FALCON 9
Launch site
Air Force Eastern Test Range (AFETR)
Object type
Payload
Rocket body
Debris
Shape & HBR
Box + 1 Pan, 10.1 m
Radar Cross Section
11.087 m², Large (>1 m²)

Expand to show TLE details & history
Last TLE update: 3 days ago

TLE from 3 days ago
0 STARLINK-3837
1 52358U 22045AD  26170.80535838  .00002571  00000-0  17956-3 0  9998
2 52358  53.1609 100.5979 0001413  87.8394 272.2759 15.08837313231209
Epoch: 2026-06-19T19:19Z
TLE epoch observation values (Epoch: 2026-06-19T19:19:42.964Z)
Latitude
-0.00002°
Longitude
-97.36019°
Altitude
540.604 km
Speed
7.593 km/s
True Right ascension
06h 42m 23s
True Declination
0° 00' 00"
Sunlit
Object was in daylight at epoch
Visualization orbit readout
Latitude
Unknown
Longitude
Unknown
Altitude
Unknown
Speed
Unknown
Apparent Right ascension
Unknown
Apparent Declination
Unknown
Sunlit
N/A
Visualization observer readout
Local Sidereal Time
21:43:25
Azimuth
Unknown
Elevation
Unknown
Doppler factor
Unknown
Orbital elements
Apogee altitude
540.983 km
Perigee altitude
539.028 km
Semi-major axis
6,918.143 km
Eccentricity
0.00014
Inclination
53.1609°
RAAN
100.5979°
Arg. of periapsis
87.8394°
True anomaly
272.25972°
Mean anomaly
272.2759°
Eccentric anomaly
272.26781°
Mean motion
3.77189 °/min
Orbital period
95.44 mins
BSTAR
0.00017956
Loading maneuver chart data...
Computing Atmospheric mass density...
Loading historical data...
Loading historical data...
Loading historical data...
Loading historical data...
Loading historical data...
Loading historical data...
Loading historical data...

Documentation

Showing up to 5 results
|